Location: Alfortville
(48.8058°N, 2.4204°E)
Time: 18:03:16
(UTC+00:00)

Meteor 1-19 Rocket - Pass Details

Date: 08 December 2023
Orbit: 806 x 928 km, 81.2° (Epoch: 04 March)

Event Time Altitude Azimuth Distance (km) Brightness Sun altitude
Rises 04:25:38 0° 358° (N) 3,590 7.4 -29.3°
Reaches altitude 10° 04:29:23 10° 21° (NNE) 2,635 6.9 -28.6°
Maximum altitude 04:32:45 15° 55° (NE) 2,272 7.0 -28.1°
Drops below altitude 10° 04:36:04 10° 89° (E) 2,602 7.7 -27.6°
Sets 04:39:42 0° 112° (ESE) 3,518 8.6 -27.0°
